User: anonymous   Login
Location: Antichan
(42.9728°N, 0.6667°E)
Time: 15:25:21
(UTC+00:00)
Language:

Cosmos 2322 - Orbit

View from above orbital plane
View from above orbital plane
View from above satellite
View from above satellite

Ground track
Ground track

The orbit data is extracted from the following two-line orbital elements,

1 23704U 95058A   20295.27236331 -.00000220 +00000-0 -91503-4 0  9996
2 23704 070.9891 002.2307 0008265 026.1216 334.0321 14.13432471288313
Epoch (UTC): 21 October 2020 06:32:12
Eccentricity: 0.0008265
inclination: 70.9891°
perigee height: 841 km
apogee height: 853 km
right ascension of ascending node: 2.2307°
argument of perigee: 26.1216°
revolutions per day: 14.13432471
mean anomaly at epoch: 334.0321°
orbit number at epoch: 28831

The dashed part of the orbit path shows where the satellite is in the earth's shadow,  

DLR